GW6926 Weather Reports


time (UTC)temp
C
wind
direction
speed
KPH
gust
KPH
rain 1hr
cm
rain 24hr
cm
rain mn
cm
humidity
%
barometer
mb
20260503190158 17 279 1.6 3.2 0.00 0.00 0.00 32 1018.4
20260503185655 17 265 6.4 6.4 0.00 0.00 0.00 32 1018.3
20260503185150 17 285 1.6 4.8 0.00 0.00 0.00 31 1018.5
20260503184645 16 196 3.2 4.8 0.00 0.00 0.00 35 1018.5
20260503184142 16 280 1.6 4.8 0.00 0.00 0.00 34 1018.8
20260503183638 16 116 3.2 4.8 0.00 0.00 0.00 37 1018.8
20260503183135 16 261 3.2 11.3 0.00 0.00 0.00 35 1018.7
20260503182633 16 312 1.6 6.4 0.00 0.00 0.00 33 1018.5
20260503182132 16 258 3.2 6.4 0.00 0.00 0.00 33 1018.8
20260503181628 16 146 3.2 11.3 0.00 0.00 0.00 35 1018.8
20260503181125 16 292 1.6 3.2 0.00 0.00 0.00 32 1018.5
20260503180622 16 249 1.6 1.6 0.00 0.00 0.00 34 1018.7
20260503180120 16 235 1.6 4.8 0.00 0.00 0.00 36 1018.9
20260503175617 16 279 1.6 11.3 0.00 0.00 0.00 33 1018.7
20260503175114 16 288 3.2 4.8 0.00 0.00 0.00 34 1019.1
20260503174610 15 290 1.6 4.8 0.00 0.00 0.00 33 1019.1
20260503174107 15 290 3.2 4.8 0.00 0.00 0.00 34 1018.9
20260503173602 15 263 1.6 1.6 0.00 0.00 0.00 34 1019.2
20260503173059 15 251 1.6 6.4 0.00 0.00 0.00 33 1019.2
20260503172556 14 288 1.6 4.8 0.00 0.00 0.00 34 1019.2
20260503172054 15 184 3.2 6.4 0.00 0.00 0.00 34 1019.2
20260503171550 14 260 6.4 9.7 0.00 0.00 0.00 33 1019.2
20260503171047 13 279 0.0 3.2 0.00 0.00 0.00 37 1019.2
20260503170543 13 242 1.6 9.7 0.00 0.00 0.00 37 1019.2
20260503150936 8 271 1.6 3.2 0.00 0.00 0.00 47 1020.7
20260503150433 8 192 0.0 4.8 0.00 0.00 0.00 48 1020.7
20260503131326 5 247 0.0 4.8 0.00 0.00 0.00 63 1020.3
20260503130823 5 250 1.6 1.6 0.00 0.00 0.00 59 1020.3
20260503130321 5 247 1.6 4.8 0.00 0.00 0.00 58 1020.7
20260503110714 5 247 0.0 0.0 0.00 0.00 0.00 73 1019.3
20260503110211 5 247 0.0 0.0 0.00 0.00 0.00 72 1019.1
20260503100138 5 271 0.0 0.0 0.00 0.00 0.00 74 1018.4
20260503081532 2 272 0.0 0.0 0.00 0.00 0.00 88 1017.8
20260503081030 2 272 0.0 0.0 0.00 0.00 0.00 88 1017.6
20260503080526 2 272 0.0 0.0 0.00 0.00 0.00 89 1017.7
20260503072500 2 272 0.0 0.0 0.00 0.00 0.00 86 1017.6
20260503071956 2 272 0.0 0.0 0.00 0.00 0.00 85 1017.4
20260503071453 3 272 0.0 0.0 0.00 0.00 0.00 85 1017.4
20260503070949 3 271 0.0 1.6 0.00 0.00 0.00 84 1017.4
20260503070447 4 264 0.0 0.0 0.00 0.00 0.00 80 1017.1
20260503054906 3 271 0.0 1.6 0.00 0.00 0.00 85 1017.1
20260503054402 3 271 1.6 1.6 0.00 0.00 0.00 86 1017.5
20260503053900 3 267 0.0 0.0 0.00 0.00 0.00 85 1017.5
20260503053358 3 268 0.0 0.0 0.00 0.00 0.00 84 1017.4
20260503052854 3 267 0.0 0.0 0.00 0.00 0.00 85 1017.4
20260503052351 3 267 0.0 1.6 0.00 0.00 0.00 84 1017.5
20260503051847 3 267 0.0 0.0 0.00 0.00 0.00 83 1017.5
20260503051343 3 244 0.0 0.0 0.00 0.00 0.00 83 1017.2
20260503050841 3 244 0.0 0.0 0.00 0.00 0.00 83 1017.2
20260503050337 3 243 0.0 0.0 0.00 0.00 0.00 83 1017.4
20260503045834 3 243 0.0 0.0 0.00 0.00 0.00 83 1017.4
20260503045332 3 244 0.0 1.6 0.00 0.00 0.00 83 1017.2
20260503044828 3 243 0.0 1.6 0.00 0.00 0.00 83 1017.2
20260503044325 3 244 0.0 0.0 0.00 0.00 0.00 82 1017.4
20260503043822 3 244 0.0 0.0 0.00 0.00 0.00 82 1017.2
20260503043319 3 252 0.0 0.0 0.00 0.00 0.00 81 1017.2
20260503042815 3 253 0.0 0.0 0.00 0.00 0.00 81 1017.5
20260503042312 3 253 0.0 0.0 0.00 0.00 0.00 80 1017.2
20260503041808 3 251 0.0 0.0 0.00 0.00 0.00 80 1017.2
20260503041306 3 248 0.0 0.0 0.00 0.00 0.00 79 1017.4
20260503040803 3 248 0.0 0.0 0.00 0.00 0.00 79 1017.2
20260503040301 4 249 0.0 0.0 0.00 0.00 0.00 78 1017.1
20260503035757 4 260 0.0 0.0 0.00 0.00 0.00 76 1017.0
20260503035255 4 247 1.6 1.6 0.00 0.00 0.00 77 1016.9
20260503034752 4 238 0.0 1.6 0.00 0.00 0.00 77 1017.2
20260503034249 4 280 0.0 1.6 0.00 0.00 0.00 76 1017.1
20260503033746 4 267 0.0 0.0 0.00 0.00 0.00 78 1017.0
20260503033244 4 267 0.0 0.0 0.00 0.00 0.00 77 1016.9
20260503032742 4 266 0.0 0.0 0.00 0.00 0.00 76 1016.9
20260503032240 5 266 0.0 0.0 0.00 0.00 0.00 75 1016.9
20260503031737 5 267 0.0 0.0 0.00 0.00 0.00 76 1016.9
20260503031235 5 266 0.0 0.0 0.00 0.00 0.00 76 1016.9
20260503030731 5 272 0.0 0.0 0.00 0.00 0.00 76 1016.8
20260503030228 5 275 0.0 1.6 0.00 0.00 0.00 78 1016.8
20260503025724 5 275 0.0 0.0 0.00 0.00 0.00 77 1016.9
20260503025222 5 275 0.0 0.0 0.00 0.00 0.00 75 1016.8
20260503024719 5 275 0.0 0.0 0.00 0.00 0.00 74 1016.7
20260503024216 5 261 0.0 1.6 0.00 0.00 0.00 70 1016.6
20260503023713 6 266 0.0 1.6 0.00 0.00 0.00 67 1016.7
20260503023209 6 266 0.0 0.0 0.00 0.00 0.00 67 1016.4
20260503022706 6 263 0.0 0.0 0.00 0.00 0.00 62 1016.5
20260503022205 6 249 0.0 0.0 0.00 0.00 0.00 59 1016.5
20260503021702 6 266 0.0 1.6 0.00 0.00 0.00 63 1016.4
20260503021159 6 247 0.0 1.6 0.00 0.00 0.00 66 1016.4
20260503020656 6 244 0.0 0.0 0.00 0.00 0.00 67 1016.2
20260503020154 6 268 1.6 4.8 0.00 0.00 0.00 67 1016.3
20260503015650 6 251 0.0 0.0 0.00 0.00 0.00 70 1016.2
20260503015147 6 264 0.0 0.0 0.00 0.00 0.00 71 1016.2
20260503014643 5 268 0.0 0.0 0.00 0.00 0.00 70 1015.9
20260503014141 6 270 0.0 0.0 0.00 0.00 0.00 70 1016.0
20260503013638 6 270 0.0 0.0 0.00 0.00 0.00 69 1015.9
20260503013136 6 262 0.0 0.0 0.00 0.00 0.00 66 1015.9
20260503012633 6 262 0.0 0.0 0.00 0.00 0.00 66 1015.6
20260503012130 6 262 0.0 0.0 0.00 0.00 0.00 65 1015.7
20260503011626 7 262 0.0 0.0 0.00 0.00 0.00 63 1015.6
20260503011123 7 275 0.0 0.0 0.00 0.00 0.00 63 1015.4
20260503010619 6 263 0.0 0.0 0.00 0.00 0.00 65 1015.4
20260503010117 7 259 0.0 0.0 0.00 0.00 0.00 62 1015.5
20260503005614 7 258 0.0 0.0 0.00 0.00 0.00 60 1015.4
20260503005111 8 259 0.0 0.0 0.00 0.00 0.00 60 1015.4
20260503004607 8 260 0.0 1.6 0.00 0.00 0.00 55 1015.5
20260503004106 8 252 0.0 0.0 0.00 0.00 0.00 48 1015.3
20260503003602 8 233 3.2 4.8 0.00 0.00 0.00 48 1015.4
20260503003059 9 267 3.2 4.8 0.00 0.00 0.00 46 1015.3
20260503002556 9 257 0.0 1.6 0.00 0.00 0.00 47 1015.1
20260503002053 9 215 6.4 9.7 0.00 0.00 0.00 47 1015.2
20260503001549 9 235 3.2 6.4 0.00 0.00 0.00 46 1015.0
20260503001047 10 235 1.6 4.8 0.00 0.00 0.00 46 1015.0
20260503000544 9 257 0.0 4.8 0.00 0.00 0.00 46 1015.0
20260503000041 9 233 1.6 3.2 0.00 0.00 0.00 47 1015.1
20260502235537 10 271 0.0 0.0 0.00 0.00 0.00 48 1014.8
20260502235035 10 243 0.0 3.2 0.00 0.00 0.00 48 1014.8
20260502234531 10 236 1.6 9.7 0.00 0.00 0.00 44 1014.6
20260502234029 10 225 3.2 6.4 0.00 0.00 0.00 44 1014.7
20260502233529 10 264 0.0 3.2 0.00 0.00 0.00 45 1014.7
20260502233027 10 264 0.0 11.3 0.00 0.00 0.00 44 1014.6
20260502232523 10 232 1.6 9.7 0.00 0.00 0.00 43 1014.5
20260502232020 10 238 1.6 4.8 0.00 0.00 0.00 43 1014.3
20260502231517 10 256 1.6 6.4 0.00 0.00 0.00 43 1014.4
20260502231015 10 245 0.0 4.8 0.00 0.00 0.00 40 1014.3
20260502230513 10 170 3.2 6.4 0.00 0.00 0.00 41 1014.4
20260502230011 11 257 0.0 3.2 0.00 0.00 0.00 41 1014.4
20260502225511 11 264 0.0 3.2 0.00 0.00 0.00 38 1014.3
20260502225009 11 254 0.0 1.6 0.00 0.00 0.00 40 1014.1
20260502224504 11 269 0.0 1.6 0.00 0.00 0.00 40 1014.3
20260502224002 11 239 1.6 6.4 0.00 0.00 0.00 38 1014.3
20260502223459 11 167 6.4 6.4 0.00 0.00 0.00 39 1014.3
20260502222957 11 278 0.0 9.7 0.00 0.00 0.00 37 1014.3
20260502222455 11 183 9.7 16.1 0.00 0.00 0.00 38 1014.4
20260502221950 12 246 1.6 4.8 0.00 0.00 0.00 37 1014.4
20260502221446 13 227 4.8 6.4 0.00 0.00 0.00 34 1014.1
20260502220944 12 64 8.0 11.3 0.00 0.00 0.00 35 1014.4
20260502220439 12 205 4.8 9.7 0.00 0.00 0.00 35 1014.0
20260502215936 13 244 1.6 9.7 0.00 0.00 0.00 34 1014.1
20260502215434 14 204 3.2 6.4 0.00 0.00 0.00 33 1014.0
20260502214931 15 270 1.6 4.8 0.00 0.00 0.00 31 1014.1
20260502214427 15 282 0.0 3.2 0.00 0.00 0.00 33 1013.7
20260502213924 14 226 3.2 9.7 0.00 0.00 0.00 34 1013.8
20260502213421 14 253 1.6 11.3 0.00 0.00 0.00 33 1013.7
20260502212920 13 265 3.2 9.7 0.00 0.00 0.00 36 1013.5
20260502212419 12 233 3.2 12.9 0.00 0.00 0.00 37 1013.4
20260502211915 12 246 4.8 12.9 0.00 0.00 0.00 36 1013.7
20260502211411 12 248 0.0 6.4 0.00 0.00 0.00 36 1013.3
20260502210908 12 204 3.2 6.4 0.00 0.00 0.00 35 1013.4
20260502210405 12 288 3.2 4.8 0.00 0.00 0.00 35 1013.4
20260502205903 12 152 6.4 9.7 0.00 0.00 0.00 36 1013.4
20260502205358 13 229 4.8 4.8 0.00 0.00 0.00 36 1013.4
20260502204856 13 202 1.6 4.8 0.00 0.00 0.00 35 1013.4
20260502204353 14 230 6.4 12.9 0.00 0.00 0.00 34 1013.3
20260502203850 14 36 1.6 3.2 0.00 0.00 0.00 35 1013.4
20260502203348 14 212 3.2 6.4 0.00 0.00 0.00 37 1013.7
20260502202843 14 199 9.7 22.5 0.00 0.00 0.00 31 1013.3
20260502202341 14 222 6.4 11.3 0.00 0.00 0.00 35 1013.2
20260502201839 15 201 4.8 14.5 0.00 0.00 0.00 35 1013.2
20260502201334 14 229 6.4 9.7 0.00 0.00 0.00 34 1013.3
20260502200831 14 211 3.2 11.3 0.00 0.00 0.00 36 1013.2
20260502200327 14 176 3.2 11.3 0.00 0.00 0.00 34 1013.4
20260502195825 15 188 6.4 11.3 0.00 0.00 0.00 33 1013.5
20260502195321 15 198 3.2 9.7 0.00 0.00 0.00 30 1013.5
20260502194818 15 220 3.2 9.7 0.00 0.00 0.00 32 1013.4
20260502194315 15 193 1.6 6.4 0.00 0.00 0.00 31 1013.3
20260502193811 14 165 8.0 17.7 0.00 0.00 0.00 34 1013.1
20260502193308 13 171 9.7 12.9 0.00 0.00 0.00 32 1013.5
20260502192803 13 227 1.6 9.7 0.00 0.00 0.00 35 1013.4
20260502192304 15 157 6.4 16.1 0.00 0.00 0.00 32 1013.8
20260502191758 14 142 4.8 12.9 0.00 0.00 0.00 38 1013.5
20260502191256 14 186 4.8 6.4 0.00 0.00 0.00 35 1013.5
20260502190753 14 315 4.8 11.3 0.00 0.00 0.00 34 1013.8